Regional Weather Roundup
Issued by NWS Green Bay, WI

Home | Current Version | Previous Version | Text Only | Print | Product List | Glossary On
Versions: 1 2 3 4 5 6 7 8 9 10 11 12 13 14 15 16 17 18 19 20 21 22 23 24 25 26 27 28 29 30 31 32 33 34 35 36 37 38 39 40 41 42 43 44 45 46 47 48 49 50
000
ASUS43 KGRB 270710
RWRGRB

NORTH-CENTRAL AND NORTHEAST WISCONSIN REGIONAL WEATHER ROUNDUP
NATIONAL WEATHER SERVICE GREEN BAY WI
100 AM CST TUE JAN 27 2015

WIZ005-009-010>012-018-019-270800-
NORTH CENTRAL WISCONSIN

CITY           SKY/WX    TMP DP  RH WIND       PRES   REMARKS
IRONWOOD       CLOUDY    21  19  93 CALM      29.94R
MANITOWISH WTR CLOUDY    19  17  95 CALM      29.94R
ARBOR VITAE    CLOUDY    22  19  89 CALM      29.94R
EAGLE RIVER    CLOUDY    20  16  85 CALM      29.94R
LAND O LAKES   CLOUDY    20  18  91 CALM      29.94R
RHINELANDER    CLOUDY    19  17  92 N3        29.93R
PHILLIPS       CLOUDY    20  18  93 CALM      29.95R
ANTIGO         CLOUDY    20  19  96 E5        29.93R
TOMAHAWK       CLOUDY    19  18  94 CALM      29.95R
MERRILL        CLOUDY    21  20  96 CALM      29.95R
$$

WIZ013-073-270800-
NORTHEAST WISCONSIN

CITY           SKY/WX    TMP DP  RH WIND       PRES   REMARKS
IRON MOUNTAIN  LGT SNOW  19  16  88 E6        29.98R FOG
MARINETTE      PTCLDY    21  18  86 E6        30.00S
OCONTO         CLOUDY    22  22  97 CALM      30.01R
$$

WIZ017-030-035>037-045-270800-
CENTRAL WISCONSIN

CITY           SKY/WX    TMP DP  RH WIND       PRES   REMARKS
MEDFORD        CLOUDY    20  19  93 CALM      29.94R FOG
WAUSAU         CLOUDY    22  19  89 CALM      29.93R
MOSINEE        CLOUDY    21  21 100 CALM      29.95R
MARSHFIELD     CLOUDY    23  20  88 N3        29.94R FOG
WISC RAPIDS    CLOUDY    23  19  85 NE3       29.96R
STEVENS POINT  CLOUDY    20  19  95 CALM      29.95R
WAUPACA        PTCLDY    25  22  89 N3        29.97R FOG
SHAWANO        CLOUDY    25  23  89 E5        29.98R
CLINTONVILLE   CLOUDY    25  23  93 CALM      29.97R
$$

WIZ038-039-048-051-270800-
FOX VALLEY

CITY           SKY/WX    TMP DP  RH WIND       PRES   REMARKS
NWS GREEN BAY  CLOUDY    24  20  84 E8        29.98R
APPLETON       CLOUDY    25  23  93 NE6       29.95R
OSHKOSH        CLOUDY    24  20  84 E3        29.95R
FOND DU LAC    CLOUDY    24  20  84 NE5       29.95R
$$

WIZ022-050-052-270800-
EAST CENTRAL WISCONSIN

CITY           SKY/WX    TMP DP  RH WIND       PRES   REMARKS
STURGEON BAY   CLOUDY    21  18  86 SE5       30.02R
MANITOWOC      MIX PCPN  25  22  88 SE10      29.99R
SHEBOYGAN      CLOUDY    26  19  74 E8        29.96R
$$

LMZ563-521-522-541>543-270800-
LAKESHORE

STATION/POSITION TIME  TEMP    WIND        PRES    VSBY  WAVE
                       AIR SEA DIR/SP/G                  HT/PER
                 (UTC) (F)     (DEG/KT/KT) (MB)    (MI)  (FT/S)
SHEBOYGAN LKSHOR 0700   26     110/ 10/ 12 1016.0R
KEWAUNEE LKSHORE 0700   25     120/  9/ 12 1014.9R
NORTHPORT PIER   0700   25     120/  8/ 10 1016.6S
SISTER BAY LKSHO 0700   23        CALM       N/A
CHAMBERS ISLAND  0700   22      60/  2/  4 1016.6S
MENOMINEE LKSHOR 0700   21      60/  4     1016.8R
$$


USA.gov is the U.S. government's official web portal to all federal, state and local government web resources and services.